Miscellaneous Local Product
Issued by NWS North Platte, NE

Home | Current Version | Previous Version | Text Only | Print | Product List | Glossary On
Versions: 1 2 3 4 5 6 7 8 9 10 11 12 13 14 15 16 17 18 19 20 21 22 23 24 25 26 27 28 29 30 31 32 33 34 35 36 37 38 39 40 41 42 43 44 45 46 47 48 49 50
416
AXUS43 KLBF 270610
MISLBF


WESTERN AND NORTH CENTRAL NEBRASKA HOURLY WEATHER ROUNDUP
NATIONAL WEATHER SERVICE NORTH PLATTE NE
100 AM CDT TUE SEP 27 2016

NOTE: "FAIR" INDICATES FEW OR NO CLOUDS BELOW 12,000 FEET WITH NO
SIGNIFICANT WEATHER AND/OR OBSTRUCTIONS TO VISIBILITY.

NOTE: STATIONS NOT REPORTING VARIABLES SUCH AS SKY/WEATHER OR
PRESSURE ARE PROVIDED BY RAWS AND APRS NETWORKS AND ARE NOT UNDER
NATIONAL WEATHER SERVICE QUALITY CONTROL.

...OBSERVATIONS IN AND NEAR THE EASTERN PANHANDLE OF NEBRASKA...

CITY           SKY/WX    TMP DP  RH WIND       PRES   REMARKS
PINE RIDGE     CLOUDY    40  36  86 E3        30.19F
CHADRON        CLOUDY    45  41  86 SW6       30.21S
ALLIANCE       CLEAR     39  37  92 W6        30.22F WCI  35
SIDNEY         CLEAR     45  39  79 W7        30.27F
CRESCENT LAKE    N/A     50  42  72 CALM        N/A
$$

...OBSERVATIONS IN NORTHERN NEBRASKA AND FAR SOUTHERN SOUTH DAKOTA...

CITY           SKY/WX    TMP DP  RH WIND       PRES   REMARKS
WINNER         FAIR      50  40  68 SW6       30.12S
VALENTINE      CLOUDY    50  38  63 NW8       30.14F
THEDFORD       CLEAR     48  41  78 W5        30.18S
AINSWORTH      CLEAR     51  42  71 NW6       30.14F
O`NEILL        CLEAR     47  41  79 W5        30.11F
ORD            CLEAR     45  40  82 N6        30.11S
BROKEN BOW     CLEAR     44  40  85 CALM      30.14F
VALENTINE NWR    N/A     50  39  67 W5          N/A
BUTTE            N/A     53  41  64 SW3         N/A
HALSEY           N/A     54  39  56 W5          N/A
EWING            N/A     49  43  81 CALM        N/A
$$

...OBSERVATIONS IN SOUTHWEST NEBRASKA AND FAR NORTHEAST COLORADO...

CITY           SKY/WX    TMP DP  RH WIND       PRES   REMARKS
WRAY           FAIR      50  37  62 W7        30.24
HOLYOKE        FAIR      54  43  66 W6        30.24F
IMPERIAL       CLEAR     54  41  61 NW5       30.21F
OGALLALA       CLEAR     47  42  81 CALM      30.21S
NORTH PLATTE   CLEAR     45  39  79 NW3       30.18F
MCCOOK         CLEAR     48  44  86 SW5       30.16F
LEXINGTON      CLEAR     46  41  84 W5        30.15F
STAPLETON        N/A     52  40  64 CALM        N/A
GOTHENBURG       N/A     52  40  64 CALM        N/A
CALLAWAY         N/A     43  41  94 CALM        N/A
$$

...OBSERVATIONS IN CENTRAL LINCOLN COUNTY AREA...

CITY           SKY/WX    TMP DP  RH WIND       PRES   REMARKS
N.P. AIRPORT   CLEAR     45  39  79 NW3       30.18F
N.P. DOWNTOWN    N/A     51  45  80 CALM        N/A
N.P. SOUTHEAST   N/A     51  44  78 CALM        N/A
N.P. HILLCREST   N/A     54  42  64 N3          N/A
$$

...SOME OBSERVATIONS FROM AROUND THE REGION...

CITY           SKY/WX    TMP DP  RH WIND       PRES   REMARKS
DENVER         CLEAR     47  28  47 S6        30.32F
LARAMIE        CLOUDY    42  36  79 W6        30.40F
CHEYENNE       CLOUDY    47  37  68 W9        30.35F
SCOTTSBLUFF    CLEAR     48  42  80 CALM      30.25S
RAPID CITY     CLOUDY    47  41  80 NW5       30.17F
BISMARCK       CLEAR     43  38  82 W5        30.06F
PIERRE         CLEAR     51  41  68 W7        30.08F
SIOUX FALLS    CLEAR     49  36  61 W6        30.03S
OMAHA          CLEAR     55  47  74 SE3       30.05F
GRAND ISLAND   CLEAR     50  44  80 W6        30.11F
KANSAS CITY    CLEAR     56  46  69 SW7       30.09F
WICHITA        CLEAR     55  47  74 SW6       30.16F
OKLAHOMA CITY  CLOUDY    61  49  64 CALM      30.18F
DALLAS         CLOUDY    68  61  78 N5        30.12F
AMARILLO       CLOUDY    52  38  58 SW9       30.29S
DODGE CITY     CLEAR     51  41  68 S8        30.19S
HAYS           CLEAR     54  37  54 S6        30.14F
GOODLAND       CLEAR     51  40  65 W6        30.22F
$$




USA.gov is the U.S. government's official web portal to all federal, state and local government web resources and services.